Weather History for KBYG - December, 2013

Change the Weather History Date:

Friday, December 13, 2013

  Actual Average Record
Temperature  
Mean Temperature 32 °F 25 °F  
Max Temperature 37 °F 36 °F 57 °F (1998)
Min Temperature 26 °F 15 °F -13 °F (2008)
Degree Days  
Heating Degree Days 33 40  
Month to date heating degree days 697 508  
Since 1 July heating degree days 2405 2342  
Moisture  
Dew Point 23 °F    
Average Humidity 66    
Maximum Humidity 92    
Minimum Humidity 40    
Precipitation  
Precipitation T in 0.01 in 0.01 in (2008)
Month to date precipitation 0.18 0.20  
Year to date precipitation 10.31 13.25  
Sea Level Pressure  
Sea Level Pressure 30.03 in    
Wind  
Wind Speed 8 mph (NNW)    
Max Wind Speed 21 mph    
Max Gust Speed 27 mph    
Visibility 7 miles    
Events Snow    
T = Trace of Precipitation, MM = Missing Value Source: NWS Daily Summary

Daily Weather History Graph

Daily Weather History Graph

Search for Another Location

Airport or City:

Trip Planner

Search our weather history database for the weather conditions in past years. The results will help you decide how hot, cold, wet, or windy it might be!

Date:

Astronomy

Dec. 13, 2013 Rise Set
Actual Time 7:34 AM MST 4:27 PM MST
Civil Twilight 7:01 AM MST 5:01 PM MST
Nautical Twilight 6:24 AM MST 5:37 PM MST
Astronomical Twilight 5:49 AM MST 6:13 PM MST
Moon 2:17 PM MST (12/13) 3:54 AM MST (12/13)
Length of Visible Light 9h 59m
Length of Day
8h 53m
Waxing Gibbous, 88% of the Moon is Illuminated
Dec 13
Waxing Gibbous
Dec 17
Full
Dec 25
Last Quarter
Jan 1
New
Jan 7
First Quarter

Hourly Weather History & Observations

Time (MST) Temp. Windchill Dew Point Humidity Pressure Visibility Wind Dir Wind Speed Gust Speed Precip Events Conditions
12:53 AM 35.1 °F 30.1 °F 14.0 °F 42% 29.89 in 10.0 mi West 5.8 mph - N/A   Clear
1:53 AM 32.0 °F 23.0 °F 14.0 °F 48% 29.91 in 10.0 mi WNW 11.5 mph - N/A   Clear
2:53 AM 33.1 °F 26.1 °F 15.1 °F 48% 29.90 in 10.0 mi NW 8.1 mph - N/A   Clear
3:53 AM 30.9 °F 23.5 °F 14.0 °F 50% 29.91 in 10.0 mi NW 8.1 mph - N/A   Clear
4:53 AM 36.0 °F 29.6 °F 14.0 °F 41% 29.92 in 10.0 mi NNW 8.1 mph - N/A   Clear
5:53 AM 32.0 °F 25.6 °F 14.0 °F 48% 29.94 in 10.0 mi NW 6.9 mph - N/A   Clear
6:53 AM 33.1 °F 24.9 °F 16.0 °F 50% 29.95 in 10.0 mi NNW 10.4 mph - N/A   Clear
7:53 AM 30.9 °F 21.7 °F 17.1 °F 57% 29.97 in 10.0 mi North 11.5 mph 17.3 mph N/A   Scattered Clouds
8:53 AM 30.9 °F 22.8 °F 18.0 °F 59% 30.01 in 10.0 mi NNW 9.2 mph - N/A   Clear
9:53 AM 34.0 °F 25.0 °F 19.9 °F 56% 30.02 in 10.0 mi NNW 12.7 mph 21.9 mph N/A   Clear
10:53 AM 33.1 °F 25.5 °F 21.0 °F 61% 30.02 in 10.0 mi North 9.2 mph - N/A   Mostly Cloudy
11:53 AM 32.0 °F 23.6 °F 21.9 °F 66% 30.02 in 10.0 mi North 10.4 mph - N/A   Overcast
12:53 PM 30.9 °F 18.1 °F 24.1 °F 76% 30.02 in 10.0 mi North 21.9 mph - N/A   Overcast
1:33 PM 30.9 °F 18.7 °F 27.0 °F 85% 29.98 in 8.0 mi North 19.6 mph 26.5 mph N/A   Overcast
1:51 PM 30.2 °F 21.3 °F 28.4 °F 93% 29.98 in 2.0 mi NNW 10.4 mph 24.2 mph 0.00 in Snow Light Snow
1:53 PM 30.9 °F 21.7 °F 28.0 °F 89% 30.04 in 2.0 mi NNW 11.5 mph - 0.00 in Snow Light Snow
2:01 PM 30.9 °F 21.7 °F 28.0 °F 89% 29.98 in 2.5 mi NNW 11.5 mph - 0.00 in   Overcast
2:08 PM 30.9 °F 19.8 °F 28.0 °F 89% 29.98 in 4.0 mi NNW 16.1 mph 25.3 mph 0.00 in   Overcast
2:32 PM 30.9 °F 22.2 °F 28.0 °F 89% 29.99 in 2.5 mi North 10.4 mph - 0.00 in Snow Light Snow
2:53 PM 30.9 °F 20.2 °F 28.9 °F 92% 30.06 in 6.0 mi North 15.0 mph 25.3 mph 0.00 in   Overcast
3:08 PM 30.9 °F 20.2 °F 28.0 °F 89% 30.00 in 7.0 mi NNW 15.0 mph 25.3 mph N/A   Overcast
3:21 PM 30.9 °F 21.2 °F 28.0 °F 89% 30.00 in 1.8 mi North 12.7 mph 24.2 mph 0.00 in Snow Light Snow
3:48 PM 30.2 °F 19.3 °F 28.4 °F 93% 30.01 in 1.5 mi NNW 15.0 mph 25.3 mph 0.00 in Snow Light Snow
3:53 PM 32.0 °F 21.6 °F 28.0 °F 85% 30.08 in 1.2 mi NW 15.0 mph 25.3 mph 0.00 in Snow Light Snow
4:05 PM 34.0 °F 24.6 °F 25.0 °F 70% 30.02 in 3.0 mi NNW 13.8 mph - 0.00 in Snow Light Snow
4:23 PM 30.9 °F 22.8 °F 27.0 °F 85% 30.03 in 1.5 mi NNW 9.2 mph - 0.00 in Snow Light Snow
4:37 PM 30.0 °F 22.4 °F 28.0 °F 92% 30.03 in 3.0 mi NW 8.1 mph - 0.00 in Snow Light Snow
4:53 PM 30.0 °F 24.1 °F 27.0 °F 88% 30.09 in 10.0 mi West 5.8 mph - 0.00 in   Overcast
5:53 PM 28.9 °F - 26.1 °F 89% 30.13 in 10.0 mi Calm Calm - N/A   Mostly Cloudy
6:53 PM 30.0 °F 25.2 °F 24.1 °F 79% 30.15 in 10.0 mi WNW 4.6 mph - N/A   Overcast
7:53 PM 30.0 °F 24.1 °F 23.0 °F 75% 30.17 in 10.0 mi West 5.8 mph - N/A   Overcast
8:53 PM 30.0 °F 23.2 °F 23.0 °F 75% 30.18 in 10.0 mi WSW 6.9 mph - N/A   Overcast
9:53 PM 30.0 °F - 21.9 °F 72% 30.18 in 10.0 mi Calm Calm - N/A   Overcast
10:53 PM 30.9 °F - 21.9 °F 69% 30.20 in 10.0 mi Calm Calm - N/A   Overcast
11:53 PM 30.9 °F - 21.9 °F 69% 30.21 in 10.0 mi Calm Calm - N/A   Overcast